Probability
0 0 0 0 0 0 0 0 0 0 0 0 0 0 0 0 0 0 0 0 0 0 0 0 0 0 0 0 0 0 0 0 0 0 0 0 1 2 2 3 3 3 3
0 0 0 0 0 0 0 0 0 0 0 0 0 0 0 0 0 0 0 0 0 0 0 0 0 0 0 0 0 0 0 0 0 0 0 0 0 1 1 2 3 3 3
0 0 0 0 0 0 0 0 0 0 0 0 0 0 0 0 0 0 0 0 0 0 0 0 0 0 0 0 0 0 0 0 0 0 0 0 0 0 0 1 1 2 2
0 0 0 0 0 0 0 0 0 0 0 0 0 0 0 0 0 0 0 0 0 0 0 0 0 0 0 0 0 0 0 0 0 0 0 0 0 0 0 0 1 1 1
0 0 0 0 0 0 0 0 0 0 0 0 0 0 0 0 0 0 0 0 0 0 0 0 0 0 0 0 0 0 0 0 0 0 0 0 0 0 0 1 1 0 0
0 0 0 0 0 0 0 0 0 0 0 0 0 0 0 0 0 0 0 0 0 0 0 0 0 0 0 0 0 0 0 0 0 0 0 0 0 0 0 0 0 0 0
0 0 0 0 0 0 0 0 0 0 0 0 0 0 0 0 0 0 0 0 0 0 0 0 0 0 0 0 0 0 0 0 0 0 0 0 0 0 0 0 0 0 0
0 0 0 0 0 0 0 0 0 0 0 0 0 0 0 0 0 0 0 0 0 0 0 0 0 0 0 0 0 0 0 0 0 0 0 0 0 0 0 0 0 0 0
0 0 0 0 0 0 0 0 0 0 0 0 0 0 0 0 0 0 0 0 0 0 0 0 0 0 0 0 0 0 0 0 0 0 0 0 0 0 0 0 0 0 0
0 0 0 0 0 0 0 0 0 0 0 0 0 0 0 0 0 0 0 0 0 0 0 0 0 0 0 0 0 0 0 0 0 0 0 0 0 0 0 0 0 0 0
0 0 0 0 0 0 0 0 0 0 0 0 0 0 0 0 0 0 0 0 0 0 0 0 0 0 0 0 0 0 0 0 0 0 0 0 0 0 0 0 0 0 0
0 0 0 0 0 0 0 0 0 0 0 0 0 0 0 0 0 0 0 0 0 0 0 0 0 0 0 0 0 0 0 0 0 0 0 0 0 0 0 0 0 0 0
0 0 0 0 0 0 0 0 0 0 0 0 0 0 0 0 0 0 0 0 0 0 0 0 0 0 0 0 0 0 0 0 0 0 0 0 0 0 0 0 0 0 0
0 0 0 0 0 0 0 0 0 0 0 0 0 0 0 0 0 0 0 0 0 0 0 0 0 0 0 0 0 0 0 0 0 0 0 0 0 0 0 0 0 0 0
0 0 0 0 0 0 0 0 0 0 0 0 0 0 0 0 0 0 0 0 0 0 0 0 0 0 0 0 0 0 0 0 0 0 0 0 0 0 0 0 0 0 0
0 0 0 0 0 0 0 0 0 0 0 0 0 0 0 0 0 0 0 0 0 0 0 0 0 0 0 0 0 0 0 0 0 0 0 0 0 0 0 0 0 0 0
0 0 0 0 0 0 0 0 0 0 0 0 0 0 0 0 0 0 0 0 0 0 0 0 0 0 0 0 0 0 0 0 0 0 0 0 0 0 0 0 0 0 0
0 0 0 0 0 0 0 0 0 0 0 0 0 0 0 0 0 0 0 0 0 0 0 0 0 0 0 0 0 0 0 0 0 0 0 0 0 0 0 0 0 0 0
0 0 0 0 0 0 0 0 0 0 0 0 0 0 0 0 0 0 0 0 0 0 0 0 0 0 0 0 0 0 0 0 0 0 0 0 0 0 0 0 0 0 0
0 0 0 0 0 0 0 0 0 0 0 0 0 0 0 0 0 0 0 0 0 0 0 0 0 0 0 0 0 0 0 0 0 0 0 0 0 0 0 0 0 0 0
0 0 0 0 0 0 0 0 0 0 0 0 0 0 0 0 0 0 0 0 0 0 0 0 0 0 0 0 0 0 0 0 0 0 0 0 0 0 0 0 0 0 0
0 0 0 0 0 0 0 0 0 0 0 0 0 0 0 0 0 0 0 0 0 0 0 0 0 0 0 0 0 0 0 0 0 0 0 0 0 0 0 0 0 0 0
0 0 0 0 0 0 0 0 0 0 0 0 0 0 0 0 0 0 0 0 0 0 0 0 0 0 0 0 0 0 0 0 0 0 0 0 0 0 0 0 0 0 0
0 0 0 0 0 0 0 0 0 0 0 0 0 0 0 0 0 0 0 0 0 0 0 0 0 0 0 0 0 0 0 0 0 0 0 0 0 0 0 0 0 0 0
0 0 0 0 0 0 0 0 0 0 0 0 0 0 0 0 0 0 0 0 0 0 0 0 0 0 0 0 0 0 0 0 0 0 0 0 0 0 0 0 0 0 0
0 0 0 0 0 0 0 0 0 0 0 0 0 0 0 0 0 0 0 0 0 0 0 0 0 0 0 0 0 0 0 0 0 0 0 0 0 0 0 0 0 0 0
Wind_Speed
4 4 4 4 4 4 4 5 5 5 5 6 6 6 7 7 6 5 6 6 6 6 6 6 7 5 4 4 4 3 3 3 3 2 1 1 2 2 2 3 3 4 6
4 4 4 5 5 5 6 6 5 6 6 6 6 6 7 7 6 6 7 7 7 8 7 7 8 6 6 5 4 5 4 4 3 3 2 1 2 2 2 3 3 3 3
4 5 5 5 6 6 7 7 6 6 7 7 6 7 7 7 7 7 7 8 8 8 8 8 8 7 7 6 6 6 5 4 4 3 3 1 1 1 2 2 3 2 2
5 5 6 6 6 7 7 7 7 7 7 7 7 7 8 8 8 8 7 8 8 8 8 8 8 8 9 8 7 7 6 5 4 3 3 2 2 2 2 3 3 2 2
5 6 6 7 7 7 7 7 7 7 8 7 7 8 8 7 7 8 7 8 8 8 8 8 9 10 11 9 7 7 7 6 5 4 4 3 3 3 3 3 4 3 2
6 7 7 7 7 8 8 8 8 8 8 7 8 8 8 8 9 12 10 8 8 9 9 9 9 11 12 13 14 13 12 9 8 6 5 5 5 4 3 4 4 4 3
6 7 7 7 8 8 9 8 8 8 7 8 8 8 9 10 13 14 14 9 8 9 9 8 8 8 10 9 11 13 14 14 13 9 8 7 6 6 5 6 6 6 4
7 7 8 8 9 9 9 9 8 7 7 7 8 8 9 10 13 12 13 9 8 9 9 10 10 9 9 9 9 9 9 10 11 9 8 8 7 6 7 6 6 4 3
7 8 8 8 9 9 9 9 8 7 8 7 8 8 9 10 12 12 10 6 7 9 9 9 10 10 11 11 9 9 8 7 9 10 10 9 9 9 7 5 6 6 5
8 8 8 8 8 9 9 9 7 7 8 8 8 8 8 9 11 11 8 4 6 7 7 8 11 12 12 12 10 9 9 8 6 7 7 7 8 9 10 8 7 7 5
7 8 8 8 8 9 8 7 8 7 7 7 8 8 8 8 9 10 9 5 6 6 6 5 6 10 12 12 11 9 10 8 6 6 6 5 5 5 7 6 6 6 6
7 8 8 8 8 7 7 8 7 7 7 7 7 8 6 6 7 8 9 8 7 6 6 5 5 7 9 10 9 9 10 8 5 5 5 5 5 5 5 6 6 6 5
7 8 8 9 8 7 7 8 7 6 5 6 6 6 7 5 5 8 8 8 7 6 5 6 6 7 7 6 9 10 9 6 6 6 6 5 5 5 5 4 5 5 4
7 8 7 8 8 8 6 5 6 6 6 6 6 6 6 6 5 4 4 4 5 5 4 4 5 6 5 5 5 6 6 6 6 6 5 5 4 4 5 4 4 5 4
7 7 7 7 7 7 7 6 6 6 6 6 6 6 6 7 6 7 6 5 4 4 3 2 2 2 3 3 4 4 5 5 6 5 5 4 4 4 4 4 4 5 5
6 6 6 6 6 6 7 8 7 8 10 10 10 8 7 9 11 11 9 8 7 6 3 2 3 3 4 4 4 4 5 6 6 6 5 5 5 5 5 4 5 6 6
6 6 6 6 6 6 6 6 8 8 8 8 7 8 8 9 9 9 8 6 5 4 3 3 3 4 4 4 4 4 5 5 5 6 6 6 5 5 5 5 5 6 6
6 7 6 6 6 6 6 6 6 6 8 7 7 7 8 8 8 7 6 3 2 1 2 3 3 3 3 4 4 4 4 5 5 6 6 6 6 6 6 6 6 7 7
5 5 5 5 5 5 6 5 5 6 6 6 6 6 6 6 6 5 3 2 2 2 3 3 3 3 3 3 4 4 4 5 5 6 6 7 6 6 6 6 6 8 7
4 8 8 5 5 5 5 5 5 5 6 6 6 5 5 4 3 3 2 2 3 3 3 3 3 3 3 3 3 4 4 5 6 5 6 6 6 7 7 8 7 7 6
4 6 9 6 4 5 5 5 5 5 5 6 5 6 7 4 4 5 4 3 3 3 3 3 2 2 2 3 3 4 5 4 5 5 6 6 6 6 6 6 7 7 7
3 4 4 4 4 4 5 5 5 5 6 6 6 6 7 4 4 4 4 3 3 3 3 3 2 2 2 3 4 4 4 5 5 5 5 6 6 6 6 6 6 6 7
3 4 4 4 4 5 5 4 5 5 5 5 5 5 5 5 5 5 5 4 4 3 2 2 2 2 2 2 3 4 4 4 5 5 6 6 6 6 6 7 8 8 8
3 3 3 4 3 4 4 5 5 5 5 5 5 5 5 5 5 6 5 5 4 4 3 2 2 2 2 1 1 2 3 3 4 5 8 7 7 7 7 7 8 9 9
2 2 3 3 3 3 4 4 5 5 5 5 5 5 5 5 5 6 6 5 5 5 5 4 3 2 2 1 1 0 1 2 3 4 6 6 7 8 8 8 8 8 8
2 2 2 2 3 3 3 4 4 5 5 5 5 4 5 5 5 5 5 5 5 5 5 4 5 4 4 2 2 1 1 1 2 3 4 5 6 6 7 7 9 9 10
Wind_Direction
321 316 315 309 307 305 294 288 286 285 286 283 280 279 278 276 270 259 255 252 245 245 240 231 232 225 221 220 215 213 217 215 227 249 255 263 249 242 229 200 189 192 193
312 312 308 307 310 306 296 291 289 286 284 281 279 278 276 274 267 260 261 258 246 244 241 234 236 228 221 217 212 213 214 214 215 233 242 245 235 225 204 184 172 181 181
314 313 310 307 304 298 293 292 291 288 287 286 281 278 278 276 270 262 258 257 249 246 243 237 237 228 226 219 213 214 214 215 210 220 233 237 235 200 162 151 141 135 156
312 309 303 298 293 290 291 291 290 287 286 284 281 277 276 275 272 266 260 257 253 249 244 239 237 229 226 222 216 213 209 212 208 217 224 235 237 201 169 163 154 145 149
307 302 294 293 293 293 293 292 292 289 288 283 282 282 278 275 267 261 255 257 252 252 249 243 240 237 233 224 220 211 204 205 203 213 218 218 220 200 192 175 170 148 142
298 294 295 300 302 301 298 296 295 293 291 288 284 283 281 277 274 272 268 261 254 250 250 247 246 247 245 236 227 216 204 203 203 204 209 215 218 214 190 178 167 164 174
297 297 299 302 303 302 302 302 297 294 291 291 287 284 282 279 275 273 270 263 254 250 247 246 249 244 235 235 233 227 217 213 205 201 207 212 211 204 197 188 187 182 180
297 298 301 303 303 304 303 299 295 291 292 289 287 286 283 282 282 279 275 267 256 250 246 242 242 246 238 228 230 228 223 219 213 209 210 212 210 202 203 202 186 165 136
299 301 303 304 305 306 303 298 294 293 295 291 287 286 285 287 286 284 275 263 256 254 248 243 239 241 237 226 225 224 222 224 221 213 208 210 208 202 193 182 171 167 171
297 299 301 300 300 299 296 294 291 290 289 291 289 285 282 285 288 288 280 258 257 258 254 247 239 236 233 221 219 216 217 217 207 203 205 210 210 206 194 196 186 179 166
295 299 301 299 296 292 290 289 292 292 293 292 292 291 287 283 288 290 283 257 250 254 254 251 244 231 227 220 213 214 215 204 201 197 194 198 200 201 198 199 196 185 178
298 301 302 301 299 303 299 298 296 294 296 299 300 302 296 289 285 290 287 269 249 245 252 250 244 232 225 219 215 215 206 195 191 191 193 198 199 200 199 196 198 195 184
304 304 304 306 303 299 298 301 304 298 294 296 298 299 301 300 293 290 292 286 270 249 250 249 240 227 221 220 219 209 198 192 187 193 200 204 204 198 188 184 184 184 173
302 305 307 310 310 309 303 296 295 295 296 296 296 298 300 300 300 305 304 299 288 268 258 249 234 220 212 210 208 204 202 196 190 197 198 196 189 186 186 179 176 174 167
301 304 308 308 306 309 308 297 291 280 268 275 284 283 291 297 295 297 294 290 286 278 274 246 227 203 198 199 197 192 193 191 196 196 190 186 187 187 186 180 175 171 175
302 307 307 308 310 310 313 313 296 281 287 275 262 264 270 268 284 294 297 288 278 270 249 235 231 218 210 204 200 196 195 196 197 197 193 190 191 191 187 182 182 180 177
291 299 302 305 308 311 312 314 318 320 314 304 294 289 280 287 293 295 298 298 279 253 236 236 235 230 221 211 203 198 199 197 192 194 195 193 192 192 188 187 189 188 183
295 299 303 301 303 306 308 308 308 313 320 321 317 310 309 305 303 303 307 311 294 245 243 245 245 240 229 217 207 203 198 187 189 194 195 194 194 192 192 192 192 192 184
300 300 301 302 304 306 307 309 311 314 314 314 318 323 327 317 306 305 306 280 280 278 263 256 251 241 229 219 209 202 196 191 192 192 194 193 193 193 196 198 192 187 185
298 307 316 309 312 317 319 320 322 321 320 323 327 328 331 329 326 322 306 280 274 273 266 259 253 245 231 220 210 201 196 194 192 196 196 193 192 192 197 197 190 184 189
297 309 320 319 315 318 321 322 321 321 322 324 323 323 327 322 320 320 317 301 283 280 277 269 258 245 233 215 206 205 204 203 197 196 194 192 190 192 195 192 189 186 185
285 295 304 309 315 320 322 320 322 324 326 329 330 334 338 339 333 329 326 318 305 288 278 272 265 248 228 215 207 204 204 203 197 194 192 189 189 189 187 186 184 182 184
285 297 308 312 315 321 327 331 332 332 330 331 334 339 345 345 341 338 336 332 324 317 306 282 271 264 247 230 219 211 208 206 198 189 185 186 187 186 183 183 184 183 187
283 296 306 314 320 327 330 332 333 334 334 336 341 343 344 343 342 342 341 337 334 332 328 320 305 297 288 269 236 219 213 209 196 191 190 191 189 186 185 185 187 189 189
277 292 304 311 316 321 323 329 333 334 337 340 343 343 342 344 347 349 348 349 350 350 354 355 352 344 339 337 339 261 167 186 194 186 186 188 188 187 186 186 184 184 184
273 289 301 306 310 316 321 327 331 336 339 342 344 344 344 344 346 349 349 351 352 351 350 352 358 2 3 1 17 53 94 135 167 178 177 177 179 182 182 183 183 183 182